Location: Logan
(41.7360°N, 111.8340°W)
Time: 20:34:07
(UTC-07:00)

Daily predictions for brighter satellites

Satellite Brightness Start Highest point End
(mag) Time Altitude Azimuth Time Altitude Azimuth Time Altitude Azimuth
CZ-3A R/B 3.6 17:49:45 10° NW 17:55:00 33° NNE 17:59:25 10° E
Cosmos 1125 Rocket 3.6 17:50:35 10° NNW 17:55:44 58° ENE 18:00:50 10° SSE
YAOGAN 1 2.5 17:52:34 10° SSE 17:56:52 73° ENE 18:01:12 10° N
COSMO-SKYMED 1 3.5 17:53:15 10° NE 17:57:03 29° E 18:00:50 10° SSE
USA 116 3.1 17:53:56 10° NNE 17:57:06 81° ESE 18:00:11 10° S
CZ-2C R/B 2.6 17:52:36 10° SSE 17:57:35 83° WSW 18:02:26 10° NNW
Cosmos 841 Rocket 4.0 17:58:10 10° SSW 18:03:24 64° WNW 18:08:39 10° NNE
Lacrosse 5 rocket 1.4 18:00:14 10° NW 18:03:54 47° NE 18:07:43 10° ESE
CENTAUR R/B 3.4 17:58:10 10° WSW 18:04:05 49° NW 18:10:50 10° NNE
SJ-7 4.5 18:00:57 10° SSE 18:04:59 85° WSW 18:09:01 10° NNW
Thor Agena Rocket 3.6 17:59:57 10° NNE 18:05:13 77° ESE 18:10:22 10° S
SPOT 3 Rocket 3.6 18:02:29 10° SSE 18:07:38 86° WSW 18:12:49 10° NNW
BREEZE M DEB (TANK) 2.2 18:04:41 10° NW 18:07:44 34° NNE 18:09:43 10° E
Cosmos 2360 Rocket 4.3 18:04:11 10° WSW 18:08:31 22° NW 18:12:52 10° N
MSX 3.8 18:04:45 10° SSE 18:10:28 86° ENE 18:16:14 10° NNW
COSMOS 2441 4.3 18:05:49 10° SSE 18:10:40 74° ENE 18:15:31 10° N
Cosmos 332 Rocket 4.5 18:07:12 10° SSW 18:11:57 58° WNW 18:16:46 10° NNE
Cosmos 1980 3.7 18:06:59 10° SSW 18:12:39 76° ESE 18:18:20 10° NNE
Cosmos 2151 3.0 18:08:56 10° S 18:13:02 57° E 18:17:10 10° NNE
Cosmos 2228 Rocket 4.1 18:10:39 10° NNW 18:14:57 52° W 18:19:16 10° S
CORIOLIS 4.4 18:10:47 10° S 18:16:06 75° WSW 18:21:30 10° NNW
Cosmos 1328 3.8 18:14:45 10° S 18:18:42 90° NW 18:22:39 10° N
Cosmos 44 3.5 18:16:09 10° SSW 18:21:26 86° WNW 18:26:30 10° NNE
CZ-4 R/B 3.1 18:18:34 10° SSW 18:22:09 36° W 18:25:48 10° NNW
Cosmos 2279 Rocket 4.0 18:18:27 10° N 18:24:36 60° E 18:30:44 10° SSE
ALOS 3.6 18:22:56 10° ESE 18:25:59 18° ENE 18:29:03 10° NNE
Cosmos 1626 3.2 18:25:47 10° SSE 18:28:53 25° E 18:31:36 12° NE
MONITOR-E 4.4 18:26:43 10° S 18:29:52 75° WSW 18:33:03 10° NNW
IDEFIX/ARIANE 42P 4.1 18:25:36 10° SSW 18:30:29 41° W 18:35:26 10° NNW
NOAA 12 4.4 18:26:16 10° SE 18:31:10 43° ENE 18:36:08 10° N
Cosmos 2333 Rocket 2.6 18:26:27 10° SW 18:32:03 64° WNW 18:37:42 10° NNE
Cosmos 2219 Rocket 3.1 18:27:37 10° SW 18:33:05 49° WNW 18:38:33 10° NNE
Aureole 2 Rocket 2.6 18:29:56 10° SSW 18:33:38 76° ESE 18:37:41 10° NNE
SJ-6B 3.6 18:31:13 10° SE 18:34:50 31° ENE 18:38:30 10° N
Cosmos 1151 Rocket 3.4 18:30:43 10° NNW 18:34:57 66° W 18:39:13 10° S
Cosmos 1703 3.5 18:34:13 10° SSE 18:37:55 44° E 18:41:39 10° NNE
Cosmos 1455 3.0 18:37:30 10° NNE 18:40:51 28° ENE 18:44:11 10° SE
Cosmos 2278 Rocket 2.7 18:38:19 10° NNW 18:43:56 64° WSW 18:49:32 10° S
Cosmos 1726 3.3 18:40:28 10° NNW 18:44:06 47° W 18:47:43 10° SSW
Nadezhda 4 Rocket 4.3 18:38:56 10° SSE 18:44:47 44° E 18:50:43 10° NNE
SKYMED 2 3.6 18:40:54 10° N 18:45:16 82° WNW 18:49:36 10° SSW
Cosmos 1805 Rocket 3.6 18:41:16 10° S 18:45:38 59° E 18:50:03 10° NNE
Lacrosse 4 Rocket 2.7 18:45:48 10° N 18:48:34 21° NE 18:48:34 21° NE
Cosmos 2180 Rocket 4.4 18:43:17 10° N 18:49:28 77° E 18:55:41 10° SSE
FREGAT/IRIS 3.0 18:48:55 10° SE 18:51:47 39° ENE 18:54:40 10° N
Cosmos 372 Rocket 4.5 18:48:01 10° NNW 18:53:03 61° WSW 18:58:03 10° S
Cosmos 773 Rocket 4.5 18:52:35 10° SSE 18:57:18 37° ESE 18:59:33 25° NE
Abrixas 2.9 18:55:15 10° WSW 18:58:07 51° NNW 18:58:45 41° NNE
Cosmos 1340 Rocket 3.2 18:58:27 10° SSW 19:02:21 62° W 19:06:16 10° N
Sich 1 3.1 18:58:31 10° S 19:02:52 58° E 19:06:47 13° NNE
Cosmos 1092 Rocket 4.2 18:59:13 10° SSE 19:05:11 46° E 19:11:12 10° NNE
Cosmos 2058 4.1 19:03:34 10° SSW 19:07:29 43° WNW 19:11:25 10° N
Cosmos 1461 2.8 19:04:02 10° SSW 19:08:14 85° WNW 19:10:07 31° NNE
Cosmos 2237 Rocket 3.3 19:03:09 10° SW 19:08:28 43° WNW 19:13:51 10° NNE
Cosmos 1633 Rocket 3.0 19:06:05 10° S 19:10:26 62° E 19:13:19 21° NNE
FAST Rocket 3.8 19:08:16 10° S 19:10:52 83° W 19:10:56 81° NW
Cosmos 2369 Rocket 3.8 19:08:48 10° N 19:11:17 17° NNE 19:11:17 17° NNE
USA 215 3.2 19:08:58 16° ESE 19:14:22 78° NE 19:20:56 10° NW
SL-16 R/B 2.2 19:09:37 10° SSW 19:15:17 84° WNW 19:19:54 16° NNE
Cosmos 304 Rocket 4.3 19:14:35 10° SSW 19:19:19 57° WNW 19:23:39 12° N
Cosmos 2297 4.2 19:21:05 10° NNW 19:26:43 61° WSW 19:32:19 10° S
Lacrosse 5 3.9 19:26:12 10° NNW 19:28:57 14° N 19:29:19 14° N
Cosmos 1356 Rocket 3.8 19:25:08 10° SSW 19:29:04 58° WNW 19:31:41 20° N
Cosmos 1184 Rocket 4.0 19:37:21 10° SSW 19:40:05 43° WSW 19:40:05 43° WSW
Resurs 01 Rocket 1.5 19:41:22 69° SSE 19:41:54 90° WNW 19:46:23 10° NNW
Lacrosse 5 rocket 3.7 19:39:58 10° WNW 19:42:52 20° SW 19:45:52 10° S
Spot 2 Rocket 3.3 19:38:32 10° SSE 19:43:35 89° ENE 19:48:39 10° NNW
Aureole 1 Rocket 3.8 19:38:22 10° SSW 19:43:42 89° WNW 19:48:31 21° NNE
CZ-4C R/B 4.3 19:44:32 10° NNW 19:48:11 18° NNE 19:48:11 18° NNE
FENGYUN 3A 3.7 19:44:53 10° S 19:50:14 78° WSW 19:55:39 10° NNW
USA 229 DEB 3.6 19:51:04 10° SSW 19:57:55 89° WNW 19:59:44 54° NNE
USA 229 3.6 19:51:10 10° SSW 19:58:01 90° SSW 19:59:46 55° NE
Iridium 4 Rocket 3.7 19:54:44 10° SSW 19:59:10 54° W 19:59:35 51° WNW
Cosmos 1627 Rocket 4.3 19:56:38 10° S 20:02:49 83° E 20:03:14 77° NE
ALOS 3.0 19:58:29 10° S 20:03:01 51° W 20:07:34 10° NNW
Cosmos 923 Rocket 4.2 20:00:40 10° SSW 20:05:14 66° SW 20:05:14 66° SW
ATLAS 5 CENTAUR R/B 4.2 20:03:05 10° NNW 20:04:58 17° N 20:04:58 17° N
BREEZE-M DEB (TANK) 4.4 20:05:21 10° SSW 20:34:50 - ENE 20:09:57 51° SE
Cosmos 1603 4.1 20:14:16 10° SSW 20:18:57 58° WSW 20:18:57 58° WSW
Lacrosse 4 Rocket 4.0 20:24:01 10° NW 20:24:58 16° NW 20:24:58 16° NW
H-2A ROCKET BODY 4.3 20:43:26 10° WSW 20:51:58 23° SSW 20:51:58 23° SSW
Cosmos 2369 Rocket 4.4 20:51:47 10° NNW 20:53:07 18° NNW 20:53:07 18° NNW
